Temperature
16 16 17 17 19 20 19 19 18 17 17 16 15 16 17 17 17 16 11 11 11 11 11 11 11 11 11 11 12 12 12 12 12 12 12 12 12 12 12 12 13 13 13 13 13 13 13 13 14
16 16 16 18 20 20 19 19 18 17 16 13 13 14 15 14 12 11 11 11 10 10 11 11 11 11 11 11 11 11 12 12 12 12 12 12 12 12 12 12 12 12 12 13 13 13 13 13 13
16 16 17 19 19 20 19 18 17 15 13 13 14 13 14 13 10 10 10 10 10 10 10 11 11 11 11 11 11 11 11 11 11 11 11 11 12 12 12 12 12 12 12 12 12 12 13 13 13
15 16 17 18 18 18 18 17 16 15 13 12 13 13 11 10 10 10 10 10 10 10 10 10 10 10 10 11 11 11 11 11 11 11 11 11 11 11 11 12 12 12 12 12 12 12 12 12 13
15 17 18 17 17 17 17 16 15 16 15 13 13 14 11 10 10 10 10 10 9 10 10 10 10 10 10 10 10 10 10 10 10 11 11 11 11 11 11 11 11 11 12 12 12 12 12 12 12
15 17 18 18 17 16 16 14 14 15 15 13 12 13 11 9 10 10 9 9 9 9 9 9 10 10 10 10 10 10 10 10 10 10 11 11 11 11 11 11 11 11 11 11 11 11 12 12 12
16 17 17 18 17 16 15 13 14 15 14 13 12 13 10 9 9 9 9 9 9 9 9 9 9 9 9 9 9 10 10 10 10 10 10 10 10 10 10 10 10 11 11 11 11 11 11 11 11
14 16 16 16 16 16 15 13 13 14 14 11 11 13 11 9 9 9 8 8 8 8 9 9 9 9 9 9 9 9 9 9 9 9 10 10 10 10 10 10 10 10 10 10 10 11 11 11 11
13 16 16 16 16 16 13 12 11 10 11 9 9 10 9 9 9 8 8 8 8 8 8 8 8 8 8 8 8 8 8 8 9 9 9 9 9 9 9 9 10 10 10 10 10 10 10 10 11
14 15 15 15 15 15 13 12 11 11 11 10 8 8 9 9 8 8 8 8 8 8 8 8 8 8 8 8 8 8 8 8 8 8 9 9 9 9 9 9 9 9 9 9 9 10 10 10 10
13 14 14 13 12 12 12 11 10 12 12 12 10 9 8 8 8 8 8 8 8 8 8 8 8 8 8 8 8 7 8 8 8 8 8 8 8 8 8 9 9 9 9 9 9 9 9 9 9
12 11 12 11 10 11 11 10 10 10 12 10 10 9 9 8 8 8 8 7 7 8 8 8 7 7 7 7 7 7 7 7 7 7 7 7 7 7 8 8 8 8 8 8 8 9 9 9 9
12 11 10 9 9 9 9 10 10 10 9 9 9 9 8 8 8 8 7 7 7 7 7 7 7 7 7 7 7 7 7 7 7 7 7 7 7 7 7 7 7 7 7 8 8 8 8 8 8
11 10 10 9 9 9 9 9 9 9 9 8 8 8 8 8 7 7 7 7 7 7 7 7 7 7 7 7 7 6 6 6 6 6 6 6 6 6 6 6 6 7 7 7 7 7 7 8 8
9 10 10 10 9 9 9 10 10 9 8 8 7 7 7 7 7 7 7 7 7 7 7 7 6 6 6 6 6 6 6 6 6 6 6 6 6 6 6 6 6 6 6 6 6 7 7 7 7
10 11 12 11 10 9 10 12 11 9 8 8 8 7 6 7 7 7 7 7 7 7 7 6 6 6 6 6 6 6 6 5 5 5 5 5 5 5 5 5 5 5 5 6 6 6 6 6 6
11 12 12 11 9 9 10 12 11 8 8 8 8 7 6 6 6 6 7 7 7 7 6 6 6 6 6 6 5 5 5 5 5 5 5 5 5 5 5 5 5 5 5 5 5 5 5 5 6
12 12 11 11 10 9 10 11 10 8 7 8 8 7 6 6 6 6 6 6 6 6 6 6 6 5 5 5 5 5 5 5 4 4 4 4 4 4 4 4 4 4 4 4 4 4 4 5 5
11 11 11 11 9 9 10 10 10 9 7 7 7 7 6 6 6 6 6 6 6 6 5 5 5 5 5 5 5 4 4 4 4 4 4 4 4 4 4 4 3 3 3 3 3 3 4 4 4
10 10 11 10 8 8 9 9 10 9 8 7 7 7 6 6 5 5 5 5 6 5 5 5 5 5 5 5 4 4 4 4 4 3 3 3 3 3 3 3 3 3 3 3 3 3 3 3 3
9 10 10 9 8 7 8 10 10 9 7 7 6 6 6 6 5 5 5 5 5 5 5 5 5 5 4 4 4 4 4 3 3 3 3 3 3 3 2 2 2 2 2 2 2 2 2 2 2
9 9 8 8 9 10 9 11 11 9 8 7 6 6 6 6 5 5 5 5 5 5 5 4 4 4 4 4 3 3 3 3 3 3 2 2 2 2 2 2 2 2 2 1 1 1 1 1 1
8 7 8 8 8 9 9 9 11 8 8 9 8 6 6 5 5 4 4 4 5 4 4 4 3 3 3 3 3 3 3 2 2 2 2 2 1 1 1 1 1 1 1 1 1 1 1 0 0
7 7 7 7 8 9 9 9 10 10 9 9 8 6 5 5 4 4 4 4 4 4 3 3 3 3 3 2 2 2 2 2 2 2 1 1 1 1 1 1 1 0 0 0 0 0 -0 -0 -0
7 8 9 9 9 10 7 8 9 9 7 7 6 5 4 4 4 3 3 3 3 3 3 3 3 2 2 2 2 2 2 2 1 1 1 1 0 0 0 0 0 -0 -0 -0 -0 -1 -1 -1 -1
7 8 9 9 10 10 6 7 9 7 5 4 4 4 3 3 3 3 3 2 3 3 2 2 2 2 2 2 2 1 1 1 1 1 1 0 0 -0 -0 -0 -1 -1 -1 -1 -1 -1 -1 -1 -2
7 7 7 8 7 8 9 8 8 6 5 4 3 3 3 2 2 2 2 2 2 2 2 2 2 1 1 1 1 1 1 0 0 0 0 -0 -1 -1 -1 -1 -1 -1 -1 -2 -2 -2 -2 -2 -2
6 6 7 8 8 9 9 8 9 7 6 5 3 2 2 2 1 1 1 1 1 1 1 1 1 1 1 1 0 0 0 -0 -0 -0 -1 -1 -1 -1 -2 -2 -2 -2 -2 -2 -2 -2 -3 -3 -3
5 5 6 7 7 8 9 9 6 6 5 4 3 2 1 1 1 1 1 1 1 1 0 0 0 0 -0 -0 -0 -0 -1 -1 -1 -1 -1 -1 -2 -2 -2 -2 -2 -2 -3 -3 -3 -3 -3 -3 -4
5 5 6 7 7 6 8 8 4 4 3 3 2 1 1 0 0 0 0 -0 -0 -0 -0 -0 -0 -1 -1 -1 -1 -1 -1 -1 -1 -2 -2 -2 -2 -2 -3 -3 -3 -3 -3 -3 -4 -4 -4 -4 -4
Wind_Speed
1 1 2 3 4 5 10 8 5 6 5 3 3 3 4 3 1 2 4 5 6 6 6 5 6 8 9 10 11 11 12 12 12 12 13 14 14 15 15 15 15 14 13 13 13 14 15 15 15
1 1 2 3 7 10 9 9 9 6 5 6 5 4 4 3 2 5 4 5 6 7 6 6 8 9 10 10 11 11 11 12 12 12 12 13 14 14 14 14 15 15 14 13 13 14 14 15 14
2 1 3 4 7 12 10 6 8 7 6 6 5 2 2 3 4 4 4 6 7 7 6 8 9 10 10 10 11 11 11 12 12 12 13 13 13 13 14 14 14 15 15 14 13 13 14 14 14
3 3 2 6 12 11 9 5 7 9 6 4 5 4 2 2 3 4 7 7 8 7 7 9 9 10 10 10 11 11 11 12 12 12 13 12 13 13 13 13 14 14 14 15 14 13 14 14 14
2 4 6 9 14 10 7 6 8 8 7 7 7 5 4 4 5 7 8 8 8 8 7 9 10 10 11 11 11 11 11 12 12 12 12 12 12 13 13 13 14 14 14 14 14 14 13 13 13
4 4 8 13 14 10 8 8 8 8 7 7 7 6 4 5 7 7 8 8 8 8 8 9 10 10 10 10 11 11 11 11 12 12 12 12 13 13 13 13 13 13 13 13 13 13 13 12 12
6 6 10 13 12 12 10 8 9 9 9 7 6 6 6 7 7 8 8 8 8 8 7 8 8 9 10 10 11 11 11 11 11 12 12 12 12 12 13 13 13 13 13 13 13 12 12 12 12
4 4 9 12 13 12 8 8 6 9 8 4 5 6 5 8 9 9 8 8 7 7 6 7 8 8 9 9 11 11 11 11 11 11 11 11 11 11 12 12 12 12 12 12 12 11 11 11 11
4 7 12 13 11 8 8 8 6 4 5 5 3 1 4 13 12 11 9 7 7 6 5 6 6 7 7 8 8 9 9 10 9 9 10 9 8 8 9 11 12 12 12 11 11 11 10 10 10
5 10 14 8 7 6 9 8 7 7 8 7 5 4 9 13 13 13 12 10 9 7 6 5 5 6 6 6 6 6 6 6 6 6 6 6 6 7 8 10 11 11 11 10 10 9 8 7 6
5 9 9 6 5 5 7 7 6 8 9 10 11 12 13 14 13 13 12 11 10 8 6 5 5 5 5 5 5 4 4 5 5 6 6 5 5 5 6 6 7 8 8 8 7 7 7 6 6
6 7 7 5 4 6 7 6 7 10 8 4 8 12 15 15 14 13 13 11 10 8 7 5 5 5 5 5 4 4 4 4 4 5 5 4 4 4 5 5 5 6 6 6 6 6 6 6 6
9 8 6 5 4 5 6 8 8 9 7 4 7 12 14 14 14 12 11 10 10 9 8 6 5 5 5 4 4 4 3 3 4 4 5 4 4 4 4 5 5 5 5 5 5 5 5 5 6
6 7 6 5 6 6 7 8 8 10 7 8 10 12 13 13 14 12 12 11 11 10 8 7 6 6 6 4 4 3 4 4 4 4 4 4 4 4 4 4 5 5 5 5 5 5 4 4 4
4 4 6 7 7 6 6 10 13 11 10 11 11 11 12 12 13 13 13 12 11 10 9 8 7 6 6 5 4 4 4 4 3 4 4 4 4 4 3 3 4 4 5 5 5 5 4 4 4
5 7 8 7 7 7 9 13 9 9 12 13 12 11 11 12 13 12 11 11 11 10 10 8 7 7 6 5 5 4 4 4 4 4 4 4 4 4 3 3 3 4 3 4 4 4 3 3 3
6 8 10 7 7 6 10 11 7 8 11 12 11 11 11 11 12 11 11 11 11 11 10 9 8 8 7 6 5 5 5 4 4 4 4 4 4 4 3 3 3 3 3 3 3 3 3 3 3
8 9 10 9 6 8 11 13 9 8 11 12 11 11 11 12 12 11 11 11 10 10 10 9 9 8 7 6 5 4 4 3 3 3 3 4 4 4 4 3 3 3 3 3 3 3 3 2 2
8 9 11 8 4 7 12 14 13 10 11 12 11 11 11 11 10 10 10 11 11 10 10 10 9 8 7 6 5 4 3 3 3 3 3 3 3 3 3 3 3 3 2 3 3 3 3 3 3
9 10 11 6 3 6 9 13 12 11 12 12 12 12 12 11 10 10 11 11 12 12 11 10 10 9 8 6 5 3 4 3 3 3 3 3 3 3 2 3 2 2 2 2 2 2 2 2 3
11 11 10 7 3 5 6 10 9 7 9 10 11 12 12 13 13 12 12 12 11 12 12 10 10 9 8 7 6 5 4 3 2 2 2 2 3 3 2 2 2 2 2 1 2 2 2 2 3
10 8 8 8 7 5 5 7 6 5 6 8 10 11 12 12 12 12 12 12 12 11 10 10 9 9 8 8 7 7 5 4 3 3 2 2 3 2 2 2 2 2 1 1 2 2 2 2 2
5 3 6 7 7 7 6 7 6 3 7 8 8 9 10 10 11 11 11 11 10 9 9 9 9 8 8 8 8 7 5 4 4 4 4 3 2 2 2 2 2 1 1 1 2 2 2 1 2
4 3 2 4 5 8 8 7 7 5 6 5 5 6 7 7 8 9 9 9 9 9 9 9 9 8 8 7 7 7 7 6 6 5 4 3 2 1 2 1 1 1 1 1 1 1 1 1 2
4 4 3 4 5 6 3 6 7 4 3 4 5 4 4 5 7 8 9 10 9 10 9 9 9 9 8 8 7 7 7 7 7 6 5 3 2 1 1 1 0 0 0 0 1 1 1 2 2
7 6 5 4 5 3 4 7 4 1 2 2 2 2 2 4 6 7 8 9 9 9 9 9 9 8 8 8 7 6 6 5 4 5 4 4 3 2 2 1 1 0 0 0 1 1 2 2 2
5 6 4 2 2 4 5 5 4 1 1 1 1 0 2 3 5 6 7 7 8 8 8 9 8 8 7 7 6 6 5 5 5 4 4 3 2 2 2 2 1 1 1 1 1 1 2 2 2
2 4 3 4 4 5 5 5 4 1 1 1 1 1 1 3 4 5 5 6 6 7 7 7 7 7 7 6 6 5 5 5 4 4 4 3 3 3 3 2 1 1 1 1 1 1 2 2 3
4 4 4 4 4 5 5 3 1 1 1 1 1 1 1 2 3 4 4 5 6 6 6 6 6 6 6 6 5 5 5 5 4 4 4 3 3 3 3 2 2 1 1 2 2 2 2 3 3
4 5 6 4 4 4 5 4 2 1 2 1 1 1 0 2 3 4 5 5 6 6 6 6 6 5 5 5 5 5 4 4 4 4 3 3 3 3 3 2 2 2 2 2 2 3 3 3 4
Wind_Direction
308 237 213 209 203 217 230 220 209 188 186 174 150 165 178 175 174 105 93 125 126 129 126 115 98 94 89 82 76 73 68 65 62 60 58 55 54 54 51 49 50 53 58 60 62 65 66 66 65
240 193 197 212 224 224 227 218 206 199 159 144 149 158 163 166 81 100 123 128 131 128 125 116 102 99 93 86 79 74 71 68 65 62 59 58 56 55 54 51 50 51 53 58 62 65 65 66 64
161 205 202 202 225 230 222 197 197 176 153 165 160 166 176 145 136 130 120 136 133 125 121 111 106 101 94 87 80 75 72 69 66 64 61 59 58 56 54 53 51 52 53 55 61 65 66 65 65
186 175 201 223 226 230 232 188 164 165 170 183 171 151 145 90 127 124 125 136 130 120 117 113 107 101 94 88 83 79 74 70 67 65 62 59 58 57 55 54 54 54 54 56 59 65 67 66 64
196 197 209 225 233 232 228 206 178 184 179 181 185 175 151 126 113 121 131 136 130 120 114 114 106 101 97 91 85 81 77 73 69 67 64 60 58 57 54 54 54 54 55 55 57 58 63 64 63
183 204 219 227 229 225 215 201 192 200 187 174 182 178 156 134 139 135 135 134 125 118 112 112 105 99 97 92 88 82 77 74 70 68 65 61 58 56 55 54 54 54 55 54 55 57 56 60 60
204 206 227 231 231 228 215 197 205 204 200 189 183 176 154 158 149 140 137 128 118 113 109 106 107 103 98 93 87 83 78 73 71 67 64 61 58 55 53 52 52 53 53 54 53 56 56 56 57
211 203 227 228 229 232 206 193 211 215 211 173 189 194 176 163 150 141 134 127 118 113 109 107 106 103 101 94 86 81 77 73 71 66 62 61 59 56 53 52 52 52 52 53 52 55 54 54 54
204 217 228 224 222 220 188 196 200 206 185 178 195 210 120 140 148 146 142 137 132 126 118 113 110 106 103 98 92 85 78 72 71 66 61 59 59 57 54 51 52 50 50 51 51 55 55 54 54
205 222 230 232 225 207 190 203 193 185 195 199 190 165 143 149 159 163 163 161 158 149 137 123 117 111 108 100 96 87 80 74 65 62 61 58 56 52 53 52 52 50 49 50 48 49 51 46 48
204 225 231 228 219 202 197 203 199 205 214 213 201 180 165 166 171 174 174 170 166 158 148 136 127 121 113 103 96 89 84 76 66 60 56 59 58 54 48 47 46 45 43 41 40 41 37 39 41
205 230 233 222 212 207 208 200 211 224 231 213 195 169 170 176 181 183 180 174 168 162 157 147 139 129 121 114 104 98 90 81 71 63 55 55 55 50 46 43 37 35 34 31 29 35 39 40 42
218 222 227 225 204 205 213 222 230 232 230 183 161 168 178 184 186 187 184 177 171 169 164 157 150 140 129 118 109 101 95 87 81 70 57 54 55 50 49 46 39 35 31 30 30 33 37 40 38
211 211 220 230 220 215 217 237 236 236 210 188 180 184 188 190 189 187 186 183 180 176 170 162 159 149 139 127 118 107 101 95 88 76 66 59 58 55 51 48 41 36 30 29 30 30 31 36 37
192 209 234 236 225 213 210 242 235 226 201 197 195 193 194 195 194 194 191 188 184 178 171 169 162 153 143 133 124 111 107 103 89 79 74 66 61 60 58 53 45 37 32 33 36 33 34 39 38
205 220 234 224 211 202 211 247 232 200 198 207 205 200 198 199 200 199 193 189 184 177 173 170 164 156 148 134 125 113 109 104 93 88 82 73 65 61 63 58 49 42 41 40 37 29 25 29 28
211 227 236 228 208 203 218 249 230 196 203 214 212 207 204 201 202 200 193 188 184 179 172 168 165 158 149 134 122 112 107 100 96 92 84 77 70 66 68 61 53 48 47 43 37 31 21 28 25
222 227 233 235 208 214 229 245 236 207 212 220 219 214 211 209 206 198 191 186 183 179 172 168 164 159 150 137 124 114 106 100 96 92 87 85 78 72 72 70 57 48 48 45 40 35 28 28 26
236 234 241 245 221 224 240 252 251 227 219 223 221 216 215 215 205 193 188 184 181 178 175 171 168 164 160 156 153 149 144 126 106 92 90 86 80 76 74 74 67 54 47 45 41 41 40 34 23
234 239 247 252 228 237 255 264 260 235 223 222 222 221 217 210 199 189 185 184 185 182 179 175 173 171 170 168 159 155 143 131 116 104 92 87 80 73 75 79 70 61 54 50 45 38 30 18 4
233 239 244 248 247 233 267 268 243 228 225 227 227 225 221 211 203 191 185 185 185 186 183 179 175 171 167 161 148 137 131 132 133 122 99 84 82 76 70 76 75 63 51 44 26 18 20 4 2
238 235 234 239 243 255 238 265 250 231 232 229 228 224 222 213 205 195 189 187 186 184 180 175 172 169 164 161 165 166 167 166 163 151 136 111 98 91 80 74 71 65 46 33 13 5 354 346 338
226 219 224 231 235 256 236 247 263 212 238 237 228 223 222 209 200 195 190 186 180 173 171 169 166 165 166 167 168 171 167 161 149 147 144 128 109 100 90 77 68 60 39 18 8 0 349 327 311
173 159 178 207 220 244 236 231 263 232 238 249 237 227 221 205 195 188 180 173 171 167 167 167 164 164 164 166 169 173 170 165 159 159 156 146 134 115 104 88 69 59 40 9 353 347 334 320 311
198 199 218 216 220 238 186 224 256 273 267 262 261 247 215 193 185 178 173 173 170 169 169 168 165 164 166 167 171 173 175 173 172 171 170 165 161 157 146 118 113 19 11 328 317 315 305 302 295
210 212 226 241 245 250 183 231 253 320 314 291 283 252 196 179 176 174 174 173 170 170 169 167 166 166 167 169 172 173 177 177 177 177 174 175 176 171 169 175 194 246 272 282 282 285 286 284 282
196 210 249 257 272 264 237 246 268 240 277 318 9 111 186 177 173 171 169 168 166 168 169 168 166 166 166 166 168 173 178 176 173 171 170 170 168 165 169 175 184 207 250 267 266 269 283 283 279
240 197 191 211 241 251 248 243 250 240 308 358 2 314 192 163 162 160 158 159 160 162 162 162 165 164 163 164 167 169 172 174 171 168 171 170 170 168 174 185 190 209 236 251 264 275 281 280 280
185 196 216 217 240 248 257 248 352 267 296 289 303 308 238 156 148 149 148 147 148 150 154 157 159 156 158 162 162 166 169 168 167 170 174 172 172 172 178 189 197 214 235 247 254 260 268 272 277
221 214 202 218 227 234 256 263 66 348 332 312 315 344 90 117 125 133 136 135 140 146 149 152 153 156 159 159 160 164 166 164 165 169 173 174 174 178 185 191 198 211 233 244 249 258 263 268 274
Height
1512 1513 1515 1517 1517 1514 1512 1513 1515 1519 1521 1524 1526 1526 1525 1526 1528 1535 1535 1533 1534 1536 1538 1539 1540 1541 1541 1541 1541 1540 1540 1540 1539 1539 1538 1538 1537 1537 1536 1536 1536 1536 1535 1535 1535 1535 1535 1535 1535
1512 1513 1516 1516 1511 1510 1510 1511 1515 1518 1522 1525 1527 1527 1527 1529 1531 1532 1532 1532 1534 1536 1538 1539 1540 1540 1541 1541 1540 1540 1540 1540 1539 1539 1539 1538 1538 1537 1537 1536 1536 1536 1536 1536 1536 1536 1536 1536 1536
1511 1513 1516 1512 1508 1505 1506 1511 1515 1520 1524 1525 1526 1527 1528 1529 1530 1530 1531 1532 1534 1536 1538 1539 1540 1540 1540 1540 1540 1540 1540 1540 1540 1539 1539 1538 1538 1538 1538 1537 1537 1537 1537 1536 1536 1536 1536 1536 1537
1512 1514 1515 1511 1507 1507 1508 1512 1517 1520 1524 1525 1525 1527 1528 1529 1529 1529 1530 1532 1534 1536 1537 1538 1539 1540 1540 1540 1540 1540 1540 1540 1540 1539 1539 1539 1539 1538 1538 1538 1538 1538 1537 1537 1537 1537 1537 1537 1537
1511 1512 1510 1509 1506 1509 1512 1515 1518 1518 1520 1523 1524 1524 1527 1527 1527 1528 1530 1532 1534 1536 1537 1538 1539 1540 1540 1540 1540 1540 1540 1540 1540 1539 1539 1539 1539 1539 1538 1538 1538 1538 1538 1538 1538 1537 1537 1538 1538
1511 1509 1505 1503 1504 1509 1513 1517 1518 1518 1519 1522 1524 1524 1526 1526 1527 1528 1530 1532 1534 1535 1536 1537 1538 1539 1540 1540 1540 1540 1540 1540 1540 1540 1539 1539 1539 1539 1539 1539 1538 1538 1538 1538 1538 1538 1538 1538 1538
1508 1506 1502 1500 1503 1506 1512 1516 1516 1516 1518 1520 1522 1522 1524 1525 1526 1527 1529 1531 1533 1534 1536 1537 1538 1539 1539 1540 1540 1540 1539 1539 1539 1539 1539 1539 1539 1539 1539 1539 1538 1538 1538 1538 1538 1538 1538 1538 1538
1506 1506 1503 1501 1502 1504 1510 1514 1515 1516 1516 1519 1521 1521 1522 1523 1524 1526 1528 1530 1532 1533 1535 1536 1537 1538 1538 1539 1539 1539 1539 1539 1539 1539 1539 1539 1539 1539 1538 1538 1538 1538 1538 1538 1538 1537 1537 1538 1538
1505 1505 1498 1497 1500 1503 1510 1512 1514 1515 1516 1517 1517 1519 1519 1520 1522 1525 1527 1529 1531 1532 1534 1535 1536 1537 1537 1538 1538 1539 1538 1538 1538 1538 1538 1538 1538 1538 1538 1538 1538 1538 1537 1537 1537 1537 1537 1537 1537
1503 1498 1495 1498 1501 1503 1508 1510 1512 1513 1514 1515 1516 1516 1517 1519 1521 1523 1525 1527 1528 1530 1532 1533 1534 1535 1536 1537 1537 1538 1538 1538 1537 1538 1537 1537 1537 1537 1537 1537 1537 1537 1537 1537 1536 1536 1537 1537 1537
1500 1497 1498 1502 1504 1505 1507 1509 1511 1510 1509 1510 1512 1513 1515 1517 1519 1521 1523 1525 1526 1528 1530 1532 1533 1534 1535 1536 1536 1537 1537 1537 1537 1537 1537 1537 1537 1536 1536 1536 1536 1536 1536 1536 1536 1536 1536 1536 1536
1500 1500 1501 1502 1504 1505 1506 1508 1509 1508 1507 1508 1509 1511 1513 1515 1516 1518 1520 1522 1524 1526 1528 1530 1531 1533 1534 1535 1536 1536 1536 1536 1536 1536 1536 1536 1536 1535 1535 1535 1535 1535 1535 1535 1534 1534 1534 1535 1535
1498 1499 1502 1503 1503 1504 1505 1506 1506 1505 1505 1506 1507 1509 1510 1512 1514 1516 1519 1521 1522 1524 1526 1528 1530 1531 1532 1533 1534 1535 1535 1535 1535 1535 1535 1535 1535 1534 1534 1534 1534 1534 1534 1534 1534 1533 1533 1533 1533
1497 1499 1501 1502 1502 1503 1504 1504 1504 1501 1503 1504 1505 1506 1508 1510 1512 1514 1516 1517 1519 1522 1524 1526 1528 1529 1531 1532 1533 1533 1534 1534 1534 1534 1534 1534 1534 1534 1533 1533 1533 1533 1533 1532 1532 1532 1532 1532 1532
1499 1499 1499 1499 1500 1501 1503 1500 1497 1498 1500 1501 1502 1504 1505 1507 1509 1510 1512 1514 1517 1519 1521 1523 1525 1527 1529 1530 1531 1532 1533 1533 1533 1533 1533 1533 1533 1532 1532 1532 1532 1532 1531 1531 1531 1531 1531 1531 1530
1497 1495 1492 1494 1497 1499 1502 1489 1490 1494 1497 1498 1500 1501 1502 1504 1505 1507 1510 1512 1514 1517 1519 1521 1523 1525 1527 1528 1529 1530 1531 1532 1532 1532 1532 1532 1531 1531 1531 1531 1531 1530 1530 1530 1530 1530 1529 1529 1529
1490 1487 1486 1490 1494 1496 1495 1485 1488 1492 1494 1495 1496 1498 1499 1500 1502 1504 1506 1509 1511 1514 1516 1518 1520 1522 1524 1526 1527 1528 1529 1530 1530 1530 1530 1530 1530 1530 1530 1530 1529 1529 1529 1528 1528 1528 1528 1527 1527
1482 1483 1484 1485 1490 1492 1490 1484 1486 1489 1491 1491 1492 1494 1495 1496 1498 1500 1502 1505 1508 1511 1513 1515 1517 1519 1521 1523 1524 1526 1527 1528 1528 1529 1529 1529 1528 1528 1528 1528 1528 1528 1527 1527 1526 1526 1526 1526 1525
1481 1481 1481 1483 1489 1490 1484 1481 1481 1485 1487 1488 1489 1490 1491 1492 1495 1496 1498 1501 1504 1507 1509 1511 1514 1516 1518 1519 1521 1523 1524 1526 1526 1527 1527 1527 1527 1527 1527 1527 1527 1527 1526 1526 1525 1524 1524 1524 1524
1484 1482 1480 1485 1490 1489 1483 1479 1478 1480 1481 1483 1484 1485 1487 1489 1490 1492 1494 1497 1500 1502 1505 1507 1510 1512 1514 1517 1519 1521 1522 1523 1524 1525 1525 1525 1525 1525 1526 1525 1525 1525 1525 1524 1524 1523 1522 1522 1523
1483 1481 1480 1483 1488 1489 1486 1474 1472 1475 1478 1479 1480 1481 1482 1484 1485 1487 1490 1492 1495 1498 1501 1504 1506 1509 1511 1513 1516 1517 1519 1520 1521 1522 1523 1523 1523 1524 1524 1524 1524 1523 1523 1523 1522 1522 1521 1521 1522
1479 1482 1484 1485 1484 1478 1482 1469 1464 1469 1473 1474 1475 1476 1477 1479 1481 1483 1485 1488 1491 1494 1497 1500 1503 1505 1508 1510 1512 1514 1516 1517 1518 1520 1520 1521 1521 1522 1522 1522 1522 1522 1521 1521 1521 1520 1520 1520 1520
1480 1484 1484 1484 1482 1481 1479 1476 1462 1469 1468 1468 1470 1472 1473 1475 1477 1480 1482 1485 1488 1491 1493 1496 1499 1502 1505 1507 1510 1512 1513 1515 1516 1517 1518 1519 1519 1520 1520 1520 1520 1520 1520 1519 1519 1518 1518 1518 1518
1484 1484 1484 1483 1481 1476 1471 1474 1460 1461 1463 1464 1467 1469 1470 1472 1474 1477 1480 1482 1485 1488 1491 1493 1496 1499 1501 1504 1506 1508 1510 1512 1513 1514 1515 1516 1517 1517 1518 1518 1518 1518 1518 1517 1517 1516 1516 1516 1516
1482 1479 1474 1472 1471 1464 1475 1474 1463 1461 1465 1466 1467 1467 1468 1470 1472 1474 1476 1479 1481 1484 1487 1490 1493 1495 1498 1501 1503 1505 1507 1509 1510 1512 1513 1514 1514 1515 1515 1516 1516 1516 1515 1515 1514 1514 1514 1513 1513
1478 1475 1470 1467 1461 1459 1477 1470 1461 1466 1467 1467 1466 1467 1467 1468 1470 1471 1474 1476 1479 1482 1485 1487 1490 1493 1495 1497 1500 1502 1504 1506 1507 1509 1510 1511 1512 1512 1513 1513 1513 1513 1513 1512 1512 1511 1511 1510 1510
1477 1474 1475 1471 1474 1471 1462 1463 1463 1465 1466 1466 1466 1466 1466 1468 1469 1470 1472 1474 1477 1479 1482 1485 1488 1490 1492 1494 1497 1499 1501 1503 1504 1505 1507 1508 1509 1509 1510 1510 1510 1510 1510 1509 1509 1508 1508 1507 1507
1479 1477 1476 1472 1467 1461 1455 1458 1456 1461 1463 1465 1466 1466 1466 1467 1468 1469 1471 1473 1475 1478 1480 1483 1485 1488 1490 1492 1494 1496 1498 1499 1501 1502 1503 1504 1505 1506 1507 1507 1507 1507 1507 1506 1506 1505 1505 1504 1504
1479 1480 1475 1470 1467 1461 1456 1455 1462 1463 1465 1466 1466 1467 1467 1467 1467 1468 1470 1471 1473 1476 1478 1480 1483 1485 1487 1489 1491 1493 1495 1497 1498 1499 1500 1501 1502 1503 1504 1504 1504 1504 1503 1503 1503 1502 1502 1501 1501
1477 1475 1474 1470 1469 1469 1461 1461 1467 1467 1467 1467 1467 1467 1467 1467 1467 1468 1469 1470 1472 1474 1477 1479 1481 1483 1485 1487 1489 1491 1492 1494 1495 1496 1497 1498 1499 1500 1500 1501 1501 1500 1500 1500 1500 1499 1498 1498 1497